Location: Millers Ferry
(32.0990°N, 87.3680°W)
Time: 05:06:36
(UTC-05:00)

CSL-04 Rocket - Visible Passes

Search period start: 20 August 2017 00:00
Search period end: 30 August 2017 00:00
Orbit: 807 x 859 km, 99.0° (Epoch: 19 August)

Date Brightness Start Highest point End Pass type
(mag) Time Alt. Az. Time Alt. Az. Time Alt. Az.
24 Aug 6.5 05:41:19 10° NE 05:44:53 18° E 05:48:24 10° SE visible
25 Aug 6.9 05:26:14 10° ENE 05:27:49 11° E 05:29:24 10° ESE visible
29 Aug 6.2 05:56:25 10° NE 06:00:50 25° E 06:05:10 10° SSE visible
